SCP
1 1 1 0 0 0 0 0 0 0 0 0 0 0 0 0 0 0 0 0 0 0 0 0 0 0 0 0 0 0 0 0 0 0 0 0 0 0 0 0 0 0 0
0 0 0 0 0 0 0 0 0 0 0 0 0 0 0 0 0 0 0 0 0 0 0 0 0 0 0 0 0 0 0 0 0 0 0 0 0 0 0 0 0 0 0
0 0 0 0 0 0 0 0 0 0 0 0 0 0 0 0 0 0 0 0 0 0 0 0 0 0 0 0 0 0 0 0 0 0 0 0 0 0 0 0 0 0 0
0 0 0 0 0 0 0 0 0 0 0 0 0 0 0 0 0 0 0 0 0 0 0 0 0 0 0 0 0 0 0 0 0 0 0 0 0 0 0 0 0 0 0
0 0 0 0 0 0 0 0 0 0 0 0 0 0 0 0 0 0 0 0 0 0 0 0 0 0 0 0 0 0 0 0 0 0 0 0 0 0 0 0 0 0 0
0 0 0 0 0 0 0 0 0 0 0 0 0 0 0 0 0 0 0 0 0 0 0 0 0 0 0 0 0 0 0 0 0 0 0 0 0 0 0 0 0 0 0
0 0 0 0 0 0 0 0 0 0 0 0 0 0 0 0 0 0 0 0 0 0 0 0 0 0 0 0 0 0 0 0 0 0 0 0 0 0 0 0 0 0 0
0 0 0 0 0 0 0 0 0 0 0 0 0 0 0 0 0 0 0 0 0 0 0 0 0 0 0 0 0 0 0 0 0 0 0 0 0 0 0 0 0 0 0
0 0 0 0 0 0 0 0 0 0 0 0 0 0 0 0 0 0 0 0 0 0 0 0 0 0 0 0 0 0 0 0 0 0 0 0 0 0 0 0 0 0 0
0 0 0 0 0 0 0 0 0 0 0 0 0 0 0 0 0 0 0 0 0 0 0 0 0 0 0 0 0 0 0 0 0 0 0 0 0 0 0 0 0 0 0
0 0 0 0 0 0 0 0 0 0 0 0 0 0 0 0 0 0 0 0 0 0 0 0 0 0 0 0 0 0 0 0 0 0 0 0 0 0 0 0 0 0 0
0 0 0 0 0 0 0 0 0 0 0 0 0 0 0 0 0 0 0 0 0 0 0 0 0 0 0 0 0 0 0 0 0 0 0 0 0 0 0 0 0 0 0
0 0 0 0 0 0 0 0 0 0 0 0 0 0 0 0 0 0 0 0 0 0 0 0 0 0 0 0 0 0 0 0 0 0 0 0 0 0 0 0 0 0 0
0 0 0 0 0 0 0 0 0 0 0 0 0 0 0 0 0 0 0 0 0 0 0 -0 0 0 0 0 0 0 0 0 0 0 0 0 0 0 0 0 0 0 0
0 0 0 0 0 0 0 0 0 0 0 0 0 0 0 0 0 0 0 0 0 0 0 -0 0 0 0 0 0 0 0 0 0 0 0 0 0 0 0 0 0 0 0
0 0 0 0 0 0 0 0 0 0 0 0 0 0 0 0 0 0 0 0 0 0 0 0 0 0 0 0 0 0 0 0 0 0 0 0 0 0 0 0 0 0 0
0 0 0 0 0 0 0 0 0 0 0 0 0 0 0 0 0 0 0 0 0 0 0 0 0 0 0 0 0 0 0 0 0 0 0 0 0 0 0 0 0 0 0
0 0 0 0 0 0 0 0 0 0 0 0 0 0 0 0 0 0 0 0 0 0 0 0 0 0 0 0 0 0 0 0 0 0 0 0 0 0 0 0 0 0 0
0 0 0 0 0 0 0 0 0 0 0 0 0 0 0 0 0 0 0 0 0 0 0 0 0 0 0 0 0 0 0 0 0 0 0 0 0 0 0 0 0 0 0
0 0 0 0 0 0 0 0 0 0 0 0 0 0 0 0 0 0 0 0 0 0 0 0 0 0 0 0 0 0 0 0 0 0 0 0 0 0 0 0 0 0 0
0 0 0 0 0 0 0 0 0 0 0 0 0 0 0 0 0 0 0 0 0 0 0 0 0 0 0 0 0 0 0 0 0 0 0 0 0 0 0 0 0 0 0
0 0 0 0 0 0 0 0 0 0 0 0 0 0 0 0 0 0 0 0 0 0 0 0 0 0 0 0 0 0 0 0 0 0 0 0 0 0 0 0 0 0 0
0 0 0 0 0 0 0 0 0 0 0 0 0 0 0 0 0 0 0 0 0 0 0 0 0 0 0 0 0 0 0 0 0 0 0 0 0 0 0 0 0 0 0
0 0 0 0 0 0 0 0 0 0 0 0 0 0 0 0 0 0 0 0 0 0 0 0 0 0 0 0 0 0 0 0 0 0 0 0 0 0 0 0 0 0 0
0 0 0 0 0 0 0 0 0 0 0 0 0 0 0 0 0 0 0 0 0 0 0 0 0 0 0 0 0 0 0 0 0 0 0 0 0 0 0 0 0 0 0
0 0 0 0 0 0 0 0 0 0 0 0 0 0 0 0 0 0 0 0 0 0 0 0 0 0 0 0 0 0 0 0 0 0 0 0 0 0 0 0 0 0 0
Wind_Speed
1 2 1 1 1 1 0 1 1 1 1 1 1 2 3 4 4 4 3 4 7 9 10 11 10 8 7 5 4 3 2 1 1 3 4 5 5 6 6 5 5 4 4
2 2 2 1 2 1 1 1 1 0 1 1 1 2 3 4 4 4 5 4 4 6 8 9 11 11 10 8 6 6 5 4 2 1 2 3 4 5 5 5 5 4 4
6 5 4 4 3 3 3 2 3 2 2 2 3 3 3 4 5 5 5 4 4 4 5 8 9 11 12 11 8 7 6 6 5 4 3 3 4 5 5 5 5 5 5
10 7 6 6 5 4 4 3 3 2 2 3 3 3 3 3 5 5 5 5 4 4 4 6 8 9 11 12 10 9 8 7 7 6 5 5 5 6 6 7 7 6 6
11 9 7 6 6 5 5 4 3 3 3 4 4 4 4 4 4 4 5 5 5 5 5 6 7 8 10 11 12 11 10 9 8 9 8 7 7 7 8 8 8 8 8
11 9 8 9 7 6 6 5 5 4 4 4 4 4 4 3 3 3 4 3 3 5 5 6 5 5 8 11 12 13 12 12 11 10 10 10 9 9 9 9 10 10 10
12 11 8 9 8 8 8 8 5 6 6 5 4 4 3 1 2 2 3 3 4 4 5 6 5 6 5 9 11 13 14 14 14 12 12 12 12 12 11 11 11 12 12
13 10 11 9 9 8 11 11 9 6 5 7 6 5 5 2 3 2 3 3 5 5 6 6 7 6 7 6 8 13 14 15 16 16 15 14 13 13 14 13 13 13 13
13 13 13 11 11 10 10 11 10 10 7 7 7 6 5 5 7 4 3 3 6 7 7 7 8 8 8 7 7 9 12 15 16 17 17 17 16 15 15 15 15 15 15
13 13 13 12 11 10 10 10 10 8 9 7 5 6 5 5 6 7 5 4 7 9 9 9 10 10 9 7 7 11 12 14 16 17 18 18 18 18 18 17 17 17 16
11 12 11 10 10 9 10 10 9 9 7 7 6 5 5 4 4 5 8 9 9 7 8 10 9 8 9 8 7 9 13 15 15 16 17 18 19 20 20 20 20 19 19
8 11 10 9 9 8 8 8 8 9 7 7 5 5 5 5 5 6 9 12 12 10 11 8 7 7 8 8 8 10 14 16 17 17 17 18 19 20 21 22 22 22 21
6 8 7 8 7 7 7 7 7 7 7 7 6 4 4 4 5 6 9 10 12 11 9 6 5 7 7 6 6 10 12 15 18 19 19 19 19 20 21 22 23 23 23
5 6 6 6 6 6 6 6 5 5 5 5 6 6 5 5 5 6 7 9 12 11 11 12 8 7 5 6 10 17 13 15 18 20 20 21 21 21 21 22 23 23 24
4 5 5 5 5 6 6 5 4 5 5 5 6 6 6 5 6 6 7 7 9 12 14 12 9 6 7 9 13 13 14 16 19 21 22 22 22 22 22 22 23 24 24
4 4 4 4 4 5 5 5 5 5 6 6 5 7 7 6 7 7 7 8 9 11 14 11 12 14 14 12 15 15 15 19 20 21 22 22 22 23 23 23 23 24 25
3 3 3 3 4 4 5 5 5 6 7 7 7 8 9 9 8 8 8 9 9 10 15 15 13 14 18 17 14 13 13 14 13 19 22 23 23 23 23 24 24 24 25
3 2 1 2 3 4 5 5 6 7 7 8 9 9 10 9 11 10 9 10 10 11 14 19 16 14 17 17 17 17 14 13 13 19 23 24 25 25 24 24 24 24 24
3 1 0 2 3 4 5 5 6 7 8 9 9 10 11 11 12 10 12 12 11 11 12 15 17 14 13 13 16 16 16 14 14 15 20 22 23 24 24 25 25 24 22
3 1 1 2 3 4 5 6 7 8 9 9 9 10 11 11 12 13 12 13 12 13 13 14 15 14 13 14 13 13 13 12 12 12 15 17 20 23 25 25 25 22 21
3 2 2 2 3 4 4 7 8 9 10 11 11 10 11 12 15 14 12 13 14 13 13 13 14 15 13 12 12 12 14 14 14 12 13 12 12 12 13 16 18 19 23
3 3 3 3 4 4 7 11 11 10 10 11 12 11 12 12 13 18 20 20 19 16 15 14 14 15 17 15 14 13 14 15 15 9 11 12 12 13 12 12 16 20 21
4 4 4 4 5 6 9 11 13 11 11 11 11 11 10 11 14 14 17 20 19 21 22 18 18 18 18 16 16 17 15 16 17 13 15 16 13 15 13 15 24 26 26
4 4 4 5 6 7 10 12 14 11 10 11 11 12 13 14 13 16 16 17 17 17 19 17 17 18 18 17 17 18 18 19 18 14 14 17 14 14 14 14 22 27 28
5 4 5 5 6 7 10 12 13 9 9 11 11 12 14 15 19 23 19 18 19 17 20 25 27 27 30 30 25 16 15 15 16 14 12 15 14 15 14 14 17 25 27
5 5 5 5 7 8 10 12 12 7 8 9 10 11 14 16 21 24 19 18 20 18 18 18 20 22 21 21 24 18 15 14 16 14 11 11 12 11 11 9 10 10 14
Wind_Direction
143 138 132 142 135 70 100 128 139 146 147 53 13 358 356 350 340 332 330 343 337 339 338 334 323 308 293 271 250 256 255 272 10 9 4 1 360 1 5 7 7 13 21
63 91 90 76 63 50 41 15 36 10 338 340 331 340 332 332 325 320 319 315 311 326 330 330 330 324 312 297 266 252 247 244 231 289 332 336 338 338 338 338 340 342 344
51 59 58 49 41 42 45 40 31 12 351 335 328 329 318 314 312 310 310 309 309 305 314 324 328 328 327 312 294 274 257 242 230 241 268 295 306 310 311 311 310 310 312
51 57 56 50 46 49 48 48 32 21 9 344 328 317 298 292 292 299 301 305 310 314 312 326 326 326 325 323 309 292 277 250 236 234 244 263 282 290 294 294 292 290 290
52 59 57 52 51 52 48 46 40 27 11 349 321 302 292 287 295 300 306 312 314 315 318 327 324 319 322 322 318 306 295 271 260 239 237 246 260 272 281 284 282 281 280
52 59 57 49 47 49 42 34 43 40 20 341 312 297 293 301 312 331 333 337 337 334 328 329 321 319 319 319 318 311 302 291 279 260 244 242 246 255 265 272 274 274 273
52 54 56 50 47 48 40 29 23 31 23 350 323 319 309 317 20 28 16 11 16 3 349 341 333 329 320 319 314 313 305 296 289 283 270 253 245 246 253 261 265 267 268
52 53 54 53 48 48 42 32 25 22 27 14 351 329 330 326 39 9 17 18 13 4 358 351 341 329 320 316 312 309 306 301 295 290 287 279 263 252 248 252 258 261 263
57 57 55 54 50 48 44 36 27 27 22 27 23 2 344 339 329 313 348 350 357 350 343 339 329 320 313 306 304 304 305 303 298 294 290 287 281 270 259 251 250 255 258
58 58 58 56 54 51 48 41 36 29 27 23 22 21 8 337 320 319 314 334 344 332 329 326 320 317 312 307 301 297 303 304 301 297 292 288 284 280 272 262 254 250 252
59 57 56 57 55 51 47 43 40 36 33 28 19 2 355 339 332 309 310 321 321 322 324 318 311 310 313 311 309 318 317 311 306 301 296 290 285 281 277 270 262 255 251
63 56 55 55 52 49 43 37 36 36 30 26 19 13 358 339 334 317 307 312 313 316 317 307 305 314 317 313 315 324 317 314 311 307 301 295 289 282 277 273 267 261 255
68 57 54 53 49 45 39 32 31 27 21 14 6 352 339 325 317 308 302 306 305 308 306 300 302 308 305 309 318 332 312 311 310 307 303 298 291 285 279 274 269 264 259
77 68 60 56 49 40 31 24 21 15 2 353 346 337 321 315 312 305 303 306 303 299 296 298 305 294 298 315 320 319 308 304 303 303 301 297 293 288 282 276 270 265 261
92 77 64 53 43 33 21 10 5 359 345 338 330 324 314 309 305 301 295 291 292 298 299 302 302 297 304 307 306 303 301 300 300 298 295 292 290 288 284 280 273 267 262
98 81 60 44 31 20 8 359 348 344 335 330 323 317 314 310 305 297 291 287 281 282 286 292 296 297 300 296 297 296 293 294 290 288 288 288 286 285 282 279 276 271 264
103 81 52 27 12 2 353 344 339 332 327 323 321 316 311 310 304 302 298 290 284 282 283 288 289 295 297 296 296 293 291 289 287 284 285 284 284 282 280 277 274 272 267
121 93 47 8 355 345 340 333 328 325 321 319 318 314 312 312 307 303 298 294 291 287 285 290 293 295 294 296 296 293 291 286 283 283 282 282 282 280 278 275 272 269 267
147 130 354 338 333 330 326 322 318 316 314 311 311 309 310 310 306 305 303 297 294 292 288 288 291 294 293 293 295 293 292 287 284 281 281 279 278 277 276 274 271 268 265
175 186 273 307 314 315 310 314 313 310 307 306 305 304 303 303 303 305 302 299 298 297 293 289 289 293 294 296 295 295 295 295 293 295 290 286 282 279 276 275 272 269 265
185 212 253 279 295 298 304 312 311 308 307 305 303 300 299 299 297 295 294 299 300 297 296 292 290 293 295 300 299 301 296 298 294 293 287 283 282 276 274 270 266 261 262
198 219 240 266 283 286 298 305 308 306 303 301 301 302 300 296 294 297 297 296 294 292 292 291 289 289 294 297 298 296 297 295 294 296 298 294 295 289 287 283 279 277 273
210 230 247 261 273 282 294 302 305 303 297 294 296 297 297 296 298 296 297 296 293 287 283 283 284 285 290 293 294 292 288 287 286 292 294 287 285 281 280 277 277 274 273
218 238 250 262 271 277 292 300 303 297 290 289 290 291 292 294 295 297 296 292 289 285 282 278 276 279 281 282 280 281 282 282 281 278 277 281 283 280 279 274 273 270 268
222 236 245 254 265 278 290 297 298 294 287 289 289 287 288 291 294 298 297 294 292 288 286 281 277 277 277 278 278 279 280 281 282 281 278 279 285 285 281 275 270 268 267
227 240 249 255 264 271 282 290 295 288 288 291 290 289 288 290 296 299 298 295 294 294 294 292 287 284 281 279 278 273 273 274 278 283 278 273 283 295 291 278 275 278 275